Location: Karcze
(52.0945°N, 22.4786°E)
Time: 12:13:56
(UTC+00:00)

ADEOS II - Pass Details

Date: 14 July 2020
Orbit: 799 x 801 km, 98.5° (Epoch: 07 August)

Event Time Altitude Azimuth Distance (km) Brightness Sun altitude
Rises 01:15:08 0° 14° (NNE) 3,324 6.7 -8.5°
Reaches altitude 10° 01:17:28 10° 14° (NNE) 2,389 5.8 -8.3°
Maximum altitude 01:22:46 82° 287° (WNW) 816 2.1 -7.8°
Drops below altitude 10° 01:28:00 10° 201° (SSW) 2,371 3.9 -7.3°
Enters shadow 01:28:37 - 201° (SSW) 2,612 4.2 -7.2°
